Location: Perryvale
(54.4667°N, 113.3833°W)
Time: 00:20:02
(UTC+00:00)

Vanguard 3 - Pass Details

Date: 24 May 2024
Orbit: 509 x 3231 km, 33.3° (Epoch: 21 June)

Event Time Altitude Azimuth Distance (km) Brightness Sun altitude
Rises 06:37:42 0° 259° (W) 5,416 11.4 -13.8°
Reaches altitude 10° 06:41:57 10° 246° (WSW) 4,827 11.0 -13.9°
Maximum altitude 06:52:04 23° 202° (SSW) 4,580 10.5 -14.2°
Enters shadow 07:00:06 17° 171° (S) 5,412 10.6 -14.4°
